Flag for U.S.A. Weather past 2 weeks in Salinas, California, U.S.A.

Now
65 °F

Passing clouds.


Feels Like: 65 °F
Forecast: 55 / 62 °F
Wind: 17 mph from West

Location: Salinas Municipal Airport

Current Time: May 22, 2015 at 5:52:48 PM

Latest Report: May 22, 2015 at 4:53 PM


Visibility: 10 mi

Pressure: 30.06 "Hg

Humidity: 59%

Dew point: 50 °F

Location of SalinasLocation

Historic Weather in Salinas — Graph

°F

Salinas temperature yesterday

Maximum temperature yesterday: 67 °F (at 1:53 PM)
Minimum temperature yesterday: 55 °F (at 12:03 AM)
Average temperature yesterday: 59 °F

Past Weeks' High & Low Weather Summary

 TemperatureHumidityPressure
High67 °F (May 21, 1:53 PM)89% (May 10, 7:53 AM)30.16 "Hg (May 10, 7:53 AM)
Low50 °F (May 8, 4:53 AM)40% (May 13, 12:53 PM)29.79 "Hg (May 7, 4:53 PM)
Average58 °F68%30.02 "Hg
* Reported May 7 4:53 PM — May 22 4:53 PM, Salinas, Weather by CustomWeather, © 2015

Note: Actual official high and low records may vary slightly from our data, if they occured in-between our weather recording intervals... More about our weather records

Advertising

Salinas weather history for previous 24 hours

 ConditionsComfort  
Time TempWeatherWind HumidityBarometerVisibility
4:53 PM
Fri, May 22
65 °FPassing clouds.17 mph59%30.06 "Hg10 mi
3:53 PM65 °FScattered clouds.13 mph56%30.05 "Hg10 mi
2:53 PM67 °FSunny.16 mph53%30.05 "Hg10 mi
1:53 PM66 °FPartly sunny.13 mph50%30.06 "Hg10 mi
12:53 PM65 °FOvercast.9 mph51%30.05 "Hg10 mi
11:53 AM64 °FMore clouds than sun.8 mph56%30.06 "Hg10 mi
10:53 AM62 °FOvercast.8 mph67%30.06 "Hg10 mi
10:04 AM63 °FMore clouds than sun.10 mph68%30.03 "Hg10 mi
9:53 AM61 °FMostly cloudy.8 mph70%30.06 "Hg10 mi
9:03 AM61 °FOvercast.6 mph68%30.03 "Hg10 mi
8:53 AM59 °FCloudy.6 mph75%30.05 "Hg10 mi
7:53 AM59 °FBroken clouds.5 mph72%30.04 "Hg10 mi
6:53 AM56 °FOvercast.No wind84%30.03 "Hg10 mi
5:53 AM56 °FOvercast.3 mph87%30.03 "Hg10 mi
5:02 AM55 °FOvercast.6 mph88%30.00 "Hg10 mi
4:53 AM56 °FOvercast.5 mph84%30.02 "Hg10 mi
3:53 AM56 °FOvercast.3 mph84%30.02 "Hg10 mi
2:53 AM56 °FOvercast.3 mph81%30.02 "Hg10 mi
1:53 AM57 °FOvercast.6 mph78%30.02 "Hg10 mi
12:53 AM56 °FOvercast.7 mph81%30.02 "Hg10 mi
11:53 PM
Thu, May 21
56 °FPassing clouds.8 mph81%30.02 "Hg10 mi
10:53 PM56 °FPassing clouds.5 mph84%30.03 "Hg10 mi
9:53 PM57 °FPassing clouds.6 mph81%30.01 "Hg10 mi
8:53 PM58 °FMostly cloudy.8 mph81%30.00 "Hg10 mi
7:53 PM58 °FMore clouds than sun.10 mph78%30.00 "Hg10 mi
6:53 PM60 °FPartly sunny.12 mph72%29.98 "Hg10 mi
5:53 PM62 °FPartly sunny.14 mph67%29.97 "Hg10 mi
Weather by CustomWeather, © 2015

See weather overviewHow to use our weather pages